Regional Weather Roundup
Issued by NWS

Home | Current Version | Previous Version | Graphics & Text | Print | Product List | Glossary On
Versions: 1 2 3 4 5 6 7 8 9 10 11 12 13 14 15 16 17 18 19 20 21 22 23 24 25 26 27 28 29 30 31 32 33 34 35 36 37 38 39 40 41 42 43 44 45 46 47 48 49 50
000
ASUS43 KIND 221800
RWRIN

WEATHER ROUNDUP FOR INDIANA
NATIONAL WEATHER SERVICE INDIANAPOLIS IN
200 PM EDT FRI SEP 22 2017

NOTE: "FAIR" INDICATES FEW OR NO CLOUDS BELOW 12,000 FEET WITH NO
SIGNIFICANT WEATHER AND/OR OBSTRUCTIONS TO VISIBILITY.

* - STATION DOES NOT REPORT WEATHER SUCH AS PRECIPITATION OR FOG.

+ - STATION NOT QUALITY CONTROLLED BY THE NATIONAL WEATHER SERVICE.
    USE DATA WITH CAUTION...ESPECIALLY DEWPOINT AND RELATIVE
    HUMIDITY OBSERVATIONS.

INZ001>003-010>013-019-020-221900-
NORTHWEST INDIANA

CITY           SKY/WX    TMP DP  RH WIND       PRES   REMARKS
GARY /AIRPORT/ MOSUNNY   91  63  38 SE8       30.07F
MICHIGAN CITY+ SUNNY     90  66  45 S5        30.08F

$$

LMZ046-743>745-221900-
SOUTHERN LAKE MICHIGAN

STATION/POSITION TIME  TEMP    WIND        PRES    WAVE
                       AIR SEA DIR/SP/G            HT
                 (UTC) (F)     (DEG/KT/KT) (MB)    (FT)
BURNS HARBOR     1740   83     350/  3/  4 1018.6F
MICHIGAN CITY    1730   87     340/  4/  4   N/A
5NW MICH CITY    1750   81 74   50/  2/  4   N/A     0

$$

INZ004-005-014>016-021>024-221900-
NORTH CENTRAL INDIANA

CITY           SKY/WX    TMP DP  RH WIND       PRES   REMARKS
ELKHART        MOSUNNY   90  66  45 CALM      30.09F
GOSHEN         MOSUNNY   88  65  46 SW7       30.10F
6HR MIN TEMP:  66; 6HR MAX TEMP:  89;

SOUTH BEND     SUNNY     89  68  49 S6        30.10F
6HR MIN TEMP:  67; 6HR MAX TEMP:  89;


$$

INZ006>009-017-018-025>027-221900-
NORTHEAST INDIANA

CITY           SKY/WX    TMP DP  RH WIND       PRES   REMARKS
FORT WAYNE     MOSUNNY   90  71  53 N7        30.10F HX  96
6HR MIN TEMP:  66; 6HR MAX TEMP:  90;

KENDALLVILLE + PTSUNNY   87  69  55 CALM      30.12F

$$

INZ028-029-035-036-043>045-051>053-221900-
WEST CENTRAL INDIANA

CITY           SKY/WX    TMP DP  RH WIND       PRES   REMARKS
LAFAYETTE      MOSUNNY   88  69  53 VRB3      30.07F
6HR MIN TEMP:  66; 6HR MAX TEMP:  89;

TERRE HAUTE    MOSUNNY   91  67  44 VRB3      30.07F
6HR MIN TEMP:  72; 6HR MAX TEMP:  93;


$$

INZ030>032-037>040-046>048-054>057-064-065-221900-
CENTRAL INDIANA

CITY           SKY/WX    TMP DP  RH WIND       PRES   REMARKS
COLUMBUS       PTSUNNY   86  66  51 N6        30.08F
INDIANAPOLIS   MOSUNNY   91  69  48 CALM      30.09F HX  96
6HR MIN TEMP:  71; 6HR MAX TEMP:  91;

-EAGLE CREEK   PTSUNNY   90  68  48 NW3       30.08F
6HR MIN TEMP:  70; 6HR MAX TEMP:  90;

KOKOMO +       PTSUNNY   90  70  51 N3        30.10F HX  95
6HR MIN TEMP:  66; 6HR MAX TEMP:  92;

MT COMFORT *+  CLOUDY    88  68  51 CALM      30.10F
SHELBYVILLE    PTSUNNY   90  66  45 VRB3      30.08F
6HR MIN TEMP:  68; 6HR MAX TEMP:  91;


$$

INZ033-034-041-042-049-050-058-059-221900-
EAST CENTRAL INDIANA

CITY           SKY/WX    TMP DP  RH WIND       PRES   REMARKS
MUNCIE         MOSUNNY   91  69  48 NE3       30.09F HX  96
6HR MIN TEMP:  67; 6HR MAX TEMP:  91;

RICHMOND +     MOSUNNY   86  68  54 CALM      30.11F

$$

INZ060-061-067>069-081>083-085>088-221900-
SOUTHWEST INDIANA

CITY           SKY/WX    TMP DP  RH WIND       PRES   REMARKS
EVANSVILLE     MOSUNNY   89  67  47 E8        30.06F
6HR MIN TEMP:  69; 6HR MAX TEMP:  90;

HUNTINGBURG +  SUNNY     88  72  58 E6        30.07
6HR MIN TEMP:  67; 6HR MAX TEMP:  88;


$$

INZ062-063-066-070>080-084-089>092-221900-
SOUTH CENTRAL AND SOUTHEAST INDIANA

CITY           SKY/WX    TMP DP  RH WIND       PRES   REMARKS
BLOOMINGTON    MOSUNNY   88  66  48 E9        30.09F
6HR MIN TEMP:  65; 6HR MAX TEMP:  90;

MADISON *+     SUNNY     88  64  45 CALM      30.10F
SEYMOUR +      SUNNY     90  66  45 E5        30.07F

$$





USA.gov is the U.S. government's official web portal to all federal, state and local government web resources and services.